Regional Weather Roundup
Issued by NWS Pendleton, OR

Home | Current Version | Previous Version | Text Only | Print | Product List | Glossary On
Versions: 1 2 3 4 5 6 7 8 9 10 11 12 13 14 15 16 17 18 19 20 21 22 23 24 25 26 27 28 29 30 31 32 33 34 35 36 37 38 39 40 41 42 43 44 45 46 47 48 49 50
000
ASUS46 KPDT 062110
RWRPDT
PENDLETON REGIONAL WEATHER ROUNDUP
NATIONAL WEATHER SERVICE PENDLETON OREGON
100 PM PST FRI MAR 6 2015

NOTE: FAIR INDICATES FEW OR NO CLOUDS BELOW 12,000 FEET WITH NO
SIGNIFICANT WEATHER AND/OR OBSTRUCTIONS TO VISIBILITY.

# INDICATES UNOFFICIAL STATION AND DATA

WAZ520-062210-
EAST SLOPES OF WASHINGTON CASCADES

CITY            SKY/WX      TMP DP  RH  WIND    PRES   REMARKS
#BUMPING DAM    N/A         55  N/A N/A S2      N/A
#CLE ELUM HS    N/A         58  36  44  CALM    30.26F
#CLE ELUM LAKE  N/A         58  36  44  W2      30.31F
#CLIFFDEL 2NW   N/A         60  29  31  W5      N/A
#EASTON DOT     N/A         58  20  23  N1      N/A
#GLENWOOD       N/A         61  39  44  CALM    30.37F
#MANASTASH CYN  N/A         58  33  39  CALM    30.27F
#NELSON         N/A         58  39  49  CALM    30.35F
#NELSON 3SW     N/A         56  41  57  CALM    30.56F
#NILE           N/A         61  33  35  SE1     29.59F
#PEOH POINT     N/A         53  32  45  SW6     N/A
#RONALD 2NW     N/A         56  40  55  W1      30.15F
#SNOWDEN        N/A         63  11  13  NW3     N/A
#TEANAWAY 4NE   N/A         59  38  45  SW1     N/A
#TROUT LAKE 1NE N/A         60  35  39  E1      30.36F
$$

WAZ521-062210-
SIMCOE HIGHLANDS

CITY            SKY/WX      TMP DP  RH  WIND    PRES   REMARKS
#BICKLETON HS   N/A         57  22  25  W6      N/A
#SATUS PASS DOT N/A         57  22  25  CALM    N/A
#CENTERVILLE 4W N/A         61  30  31  NW7     30.07F
#CENTERVILLE 1SWN/A         59  37  44  W1      30.33F
#GOLDENDALE     N/A         58  34  40  NW3     N/A
#GOLDENDALE 1NE N/A         60  25  26  SW3     N/A
#GOLDENDALE 5WNWN/A         61  33  35  SW3     30.31F
#GOODNOE HILLS  N/A         60  35  39  W12     N/A
#LYLE 6NE       N/A         55  39  55  S3      30.33F
$$

WAZ026-062210-
KITTITAS VALLEY

CITY            SKY/WX      TMP DP  RH  WIND    PRES   REMARKS
ELLENSBURG AP   PTCLDY      60  33  36  CALM    30.32F
#ELLENSBURG CWU N/A         60  35  39  CALM    30.29F
#ELLENSBURG 3NE N/A         55  37  51  W1      30.31F
#KITTITAS 4N    N/A         58  38  47  CALM    28.62F
#KITTITAS 3S    N/A         55  36  49  CALM    30.35F
#THORP 6N       N/A         56  38  51  CALM    30.37F
$$

WAZ027-062210-
YAKIMA VALLEY

CITY            SKY/WX      TMP DP  RH  WIND    PRES   REMARKS
SUNNYSIDE AP    PTCLDY      56  32  40  CALM    30.35F
YAKIMA AIRPORT  PTCLDY      62  32  32  NE3     30.34F
#DONALD 2NE     N/A         66  11  11  N1      29.18F
#MABTON         N/A         56  37  49  CALM    30.36F
#NACHES 2SW     N/A         57  37  47  E5      30.35S
#TERRACE HTS    N/A         59  35  40  CALM    30.34F
#WAPATO 4NE     N/A         66  11  11  N1      29.18F
#WEST VALLEY    N/A         57  35  43  SE2     30.35F
#W YAKIMA       N/A         58  32  37  SE3     30.37F
#WHITE SWAN 5E  N/A         57  37  47  E1      30.37F
$$

WAZ028-062210-
LOWER COLUMBIA BASIN...WASHINGTON

CITY            SKY/WX      TMP DP  RH  WIND    PRES   REMARKS
PASCO           PTCLDY      58  33  39  CALM    30.37F
PROSSER AWOS    N/A         59  34  39  N2      30.38F
RICHLAND AWOS   PTCLDY      57  32  38  CALM    30.37F
#BASIN CITY 5SW N/A         57  35  43  CALM    30.36F
#BENTON CITY    N/A         56  35  45  E2      30.28F
#CONNELL 5N     N/A         59  33  37  SW5     30.37F
#CONNELL 5NW    N/A         57  36  45  S1      30.34F
#ELTOPIA        N/A         62  36  38  CALM    30.33F
#ELTOPIA 6NW    N/A         58  34  40  CALM    29.31F
#KAHLOTUS       N/A         58  34  40  W3      30.38F
#KENNEWICK 3S   N/A         57  36  45  CALM    30.38F
#PASCO-BROADMOORN/A         61  33  35  S1      30.29F
#PATERSON       N/A         53  34  48  SW1     30.36F
#PROSSER DOT    N/A         58  32  37  CALM    N/A
#PROSSER        N/A         58  33  39  CALM    30.37F
#SAGEMOOR 2W    N/A         58  35  42  CALM    30.22F
#TOUCHET 2S     N/A         60  37  42  CALM    30.36F
#WEST PASCO     N/A         58  37  45  CALM    30.39F
$$

WAZ029-062210-
FOOTHILLS OF THE BLUES...WASHINGTON

CITY            SKY/WX      TMP DP  RH  WIND    PRES   REMARKS
WALLA WALLA AP  PTCLDY      63  28  26  VRB3    30.35F
#DAYTON SCHOOL  N/A         62  25  24  S2      30.35F
#LOWDEN 2SE     N/A         61  38  42  W2      30.32F
#PLEASANT VIEW 1N/A         61  31  32  SW7     30.41F
#PRESCOTT       N/A         63  33  32  W2      30.37F
#SUDBURY        N/A         64  N/A N/A CALM    N/A
#WHITMAN COLLEGEN/A         61  33  35  NW3     30.40F
#WAITSBURG 5S   N/A         60  32  35  W5      30.45F
#WAITSBURG 8N   N/A         65  16  15  S3      30.18F
#WALLA WALLA 5E N/A         65  33  30  NW2     N/A
#WALLA WALLA U  N/A         62  34  35  CALM    30.37F
#WHITMAN MISSIONN/A         61  36  39  W1      30.38F
$$

WAZ030-062210-
BLUE MOUNTAINS...WASHINGTON

CITY            SKY/WX      TMP DP  RH  WIND    PRES   REMARKS
#DIXIE 5SE      N/A         59  23  25  W2      30.29F
#SKI BLUEWOOD   N/A         55  16  21  SE6     30.35F
$$

ORZ009-041-WAZ024-062210-
COLUMBIA RIVER GORGE

CITY            SKY/WX      TMP DP  RH  WIND    PRES   REMARKS
HOOD RIVER AP   PTCLDY      61  37  41  CALM    30.36F
THE DALLES AP   PTCLDY      61  37  41  CALM    30.35F
#ARLINGTON AIRPON/A         58  37  45  W6      29.99S
#ARLINGTON HS   N/A         53  38  57  NE3     30.28F
#CELILO DOT     N/A         53  35  50  CALM    N/A
#MARYHILL       N/A         55  38  53  CALM    N/A
#MOSIER 1S      N/A         61  31  32  NW2     30.32F
#MURDOCK        N/A         58  37  45  SW2     30.37F
#RUFUS DOT      N/A         57  33  40  NW5     N/A

$$

ORZ510-062210-
NORTH CENTRAL OREGON

CITY            SKY/WX      TMP DP  RH  WIND    PRES   REMARKS
#COW CYN RST AREN/A         58  25  28  W3      N/A
#DUFUR 9E       N/A         55  33  43  NW2     30.40F
#GRASS VALLEY 1SN/A         60  32  35  W8      30.37F
#KENT DOT       N/A         62  26  25  W7      N/A
#MAUPIN SCHOOL  N/A         59  34  39  CALM    30.36F
#MORO SCHOOL    N/A         62  40  44  SW2     30.34F
#SHANIKO 5WSW   N/A         59  23  25  S8      N/A
#SHANIKO 4NW    N/A         58  25  28  SW2     30.36F
#TYGH VALLEY 2NEN/A         59  37  44  CALM    30.36F
#WAPANITIA AIRPON/A         60  37  42  E3      30.38F
#WASCO DOT      N/A         64  35  34  W1      N/A
#WASCO 5NE      N/A         60  39  46  N1      30.38F
$$

ORZ511-062210-
CENTRAL OREGON

CITY            SKY/WX      TMP DP  RH  WIND    PRES   REMARKS
BEND AIRPORT    SUNNY       63  21  20  CALM    30.34
MADRAS AIRPORT  PTCLDY      57  32  38  CALM    30.38F
PRINEVILLE AP   SUNNY       63  21  20  VRB3    30.35F
REDMOND AIRPORT SUNNY       64  22  20  VRB3    30.34F
#BEND 6E        N/A         62  18  18  CALM    30.30F
#BEND 1SW       N/A         62  20  20  W3      N/A
#BEND-AWBREY    N/A         64  28  25  CALM    30.35F
#BEND-KIM LN    N/A         65  23  20  SW2     30.32F
#CROOKED RVR RANN/A         64  27  24  S3      30.35F
#CULVER         N/A         60  32  35  CALM    30.31F
#CULVER 1E      N/A         60  32  35  CALM    30.36F
#LAKE BILLY CHINN/A         58  -5   7  NE2     30.37F
#POWELL BUTTE   N/A         69  34  27  E2      29.95F
#PRINEVILLE 3N  N/A         64  28  25  NE3     30.32F
#WARM SPRINGS   N/A         60  35  39  N1      30.32F

$$


ORZ509-062210-
EAST SLOPES OF OREGON CASCADES

CITY            SKY/WX      TMP DP  RH  WIND    PRES   REMARKS
#BLUE BOX PASS  N/A         57   3  11  NW3     N/A
#CAMP SHERMAN   N/A         70  23  17  CALM    30.37F
#LA PINE DOT    N/A         62  12  14  N1      N/A
#LA PINE 4NW    N/A         61  23  23  CALM    30.45F
#LAVA BUTTE DOT N/A         63  22  21  SW3     N/A
#MT BACHELOR-MIDN/A         46   5  18  SW3     N/A
#SISTERS AIRPOR N/A         61  31  32  E3      30.17S
#SISTERS ODOT   N/A         61  N/A N/A W2      N/A
#SISTERS 3N     N/A         63  29  28  S3      30.34F
#SUNRIVER       N/A         62  18  18  SW2     30.29F
#TUMALO 3W      N/A         60  23  24  NE1     30.22F
#WANOGA BUTTE D N/A         54  12  18  W6      N/A

$$

ORZ044-062210-
LOWER COLUMBIA BASIN...OREGON

CITY            SKY/WX      TMP DP  RH  WIND    PRES   REMARKS
HERMISTON       PTCLDY      59  33  37  NW5     30.35F
#BOARDMAN 8SW   N/A         61  41  48  W1      30.35F
#IONE SCHOOL    N/A         61  33  35  SW1     30.32F
#IRRIGON 4NW    N/A         52  35  52  NW3     N/A
#UMATILLA SCHOOLN/A         56  41  57  CALM    30.36F
#UMATILLA       N/A         57  36  45  N1      30.34F
$$

ORZ507-062210-
NORTHERN FOOTHILLS OF THE BLUES

CITY            SKY/WX      TMP DP  RH  WIND    PRES   REMARKS
PENDLETON AIRPT PTCLDY      60  29  31  NW8     30.34F
#ADAMS 3WNW     N/A         63  33  32  W6      30.37F
#ATHENA         N/A         64  25  23  SW1     30.38F
#CAYUSE         N/A         63  30  29  NW5     30.34F
#HELIX SCHOOL   N/A         62  29  28  W1      30.38F
#HELIX 3N       N/A         61  28  28  SW7     30.30F
#HOLDMAN 5SE    N/A         62  34  35  E6      30.34F
#HOLDMAN 6E     N/A         60  31  33  E3      30.18F
#M-F FERNDALE   N/A         64  31  29  CALM    30.33F
#M-F GROVE ELEM N/A         60  28  29  N1      30.32F
#M-FREEWATER 5SEN/A         64  34  33  NW3     30.33F
#PENDLETON DNTN N/A         66  33  29  NW2     30.34S
#PDT AQUATIC CTRN/A         66  38  36  W6      30.34S
#PENDLETON 5NE  N/A         63  34  34  NW2     30.29F
#PDT SUNRIDGE   N/A         62  32  32  NW5     30.36F
#PENDLETON 7NW  N/A         62  37  39  W3      N/A
#PILOT ROCK     N/A         62  29  28  CALM    30.35F
#TUTUILLA       N/A         64  31  29  NW7     30.37F
#UMAPINE 2E     N/A         61  34  36  NW1     30.32F
#WESTON SCHOOL  N/A         62  26  25  E5      30.32F

$$

ORZ508-062210-
SOUTHERN FOOTHILLS OF THE BLUES

CITY            SKY/WX      TMP DP  RH  WIND    PRES   REMARKS
LEXINGTON       SUNNY       64  32  30  NW8     30.35F
#AJAX           N/A         59  30  33  S1      30.26F
#CONDON SCHOOL  N/A         59  31  34  CALM    30.28F
#CONDON 5W      N/A         58  25  28  SW5     30.33F
#FOSSIL SCHOOL  N/A         63  27  25  W1      30.29F
#HEPPNER EOC    N/A         61  32  33  N2      30.32S
#HEPPNER 4NE    N/A         58  31  36  N5      30.35F
#LEXINGTON 2SE  N/A         63  32  31  CALM    30.31F
#MIKKALO        N/A         61  31  32  N6      30.33F
#OLEX 4N        N/A         61  38  42  W2      30.33F
#RUGGS 5NE      N/A         62  33  34  NW5     30.55R
#RUGGS 2SW      N/A         61  28  28  NW3     30.37F

$$

ORZ502-503-062210-
BLUE MOUNTAINS

CITY            SKY/WX      TMP DP  RH  WIND    PRES   REMARKS
MEACHAM         PTCLDY      60  15  17  CALM    30.35F
#BATTLE MTN DOT N/A         55  31  40  S3      N/A
#HEPPNER 15SE   N/A         56  28  34  N1      30.29F
#LADD CYN SMT   N/A         54  20  26  E12     N/A
#LADD CREEK ODOTN/A         60  29  31  S3      N/A
#LONG CREEK HS  N/A         56  29  35  CALM    30.32F
#N POWDER DOT   N/A         56  27  33  S2      N/A
#PIKES PEAK     N/A         54  24  31  SW7     27.99S
#TOLLGATE       N/A         52  19  27  S2      30.29F
#TROY SCHOOL    N/A         61  32  33  SE5     30.22F
#UKIAH          N/A         63  27  25  CALM    30.46F
#WESTON 4E      N/A         58  25  28  W2      30.32F
$$

ORZ505-062210-
JOHN DAY BASIN

CITY            SKY/WX      TMP DP  RH  WIND    PRES   REMARKS
JOHN DAY        SUNNY       59  29  32  SW5     30.37F
#JOHN DAY KJDY  N/A         55  24  30  SW1     30.35R
#DAYVILLE SCHOOLN/A         57  25  29  NE1     30.31F
#MONUMENT HS    N/A         57  23  27  CALM    30.35F
#MT. VERNON 5SE N/A         55  31  40  W1      30.33F
#SPRAY SCHOOL   N/A         58  N/A N/A CALM    N/A
#WINLOCK        N/A         61  26  26  N3      30.42F
$$

ORZ506-062210-
OCHOCO AND JOHN DAY HIGHLANDS

CITY            SKY/WX      TMP DP  RH  WIND    PRES   REMARKS
#BUCK CREEK DOT N/A         60  60  100 E6      N/A
#HORSE RIDGE DO N/A         61  21  21  N8      N/A
#KEYES SMT DOT  N/A         58  26  29  CALM    N/A
#PAULINA SCHOOL N/A         59  30  33  CALM    30.32F
#PRAIRIE CITY   N/A         60  18  19  SW1     30.30F
#SENECA         N/A         46  N/A N/A N1      N/A
#SENECA 9NW     N/A         53  25  33  SW2     30.48F
$$

ORZ049-062210-
GRANDE RONDE VALLEY

CITY            SKY/WX      TMP DP  RH  WIND    PRES   REMARKS
LA GRANDE       SUNNY       57  27  31  NE5     30.36F
#COVE           N/A         59  33  37  SE1     30.35F
#COVE SCHOOL    N/A         60  29  31  CALM    30.32F
#ELGIN 3N       N/A         58  24  27  W3      30.30F
#ELGIN 1E       N/A         58  29  33  S1      N/A
#IMBLER SCHOOL  N/A         56  29  35  SE2     30.29F
#ISLAND CITY 4N N/A         59  43  55  S1      30.38F
#LADD CYN DOT   N/A         59  30  33  NE3     N/A
#LA GRANDE ELEM N/A         57  29  34  NE1     30.35F
#UNION 1S       N/A         59  27  29  S7      30.32F
$$

ORZ050-062210-
WALLOWA COUNTY

CITY            SKY/WX      TMP DP  RH  WIND    PRES   REMARKS
#ENTERPRISE HS  N/A         57  27  31  W5      30.31F
#IMNAHA SCHOOL  N/A         59  28  30  N10     30.32F
#IMNAHA 10S     N/A         61  28  28  NE3     30.30F
#JOSEPH 3N      N/A         56  27  33  NW6     30.35F
#JOSEPH 3W      N/A         54  13  19  E9      30.18F
#LOSTINE        N/A         54  25  32  NW1     30.25F
#MT HOWARD 8000 N/A         42  16  34  CALM    30.42F
#PROMISE 1S     N/A         58  27  30  N1      30.46F
#SHEEP RDG 7000 N/A         43  14  30  CALM    30.39F
#WALLOWA SCHOOL N/A         54  26  34  CALM    31.43F



$$



USA.gov is the U.S. government's official web portal to all federal, state and local government web resources and services.